Starlink 30805

operational
NORAD ID: 58214 Int'l Des: 2023-170 Owner: SPXS Country: US Constellation: starlink
LEOCIRCULAR

Über Starlink 30805

Beschreibung wird geladen...

Live-Position

3D-Globus wird geladen...

Nächste Überflüge

Höhenverlauf

Altitude vs Time

uPlot chart will show altitude changes over time

Zweizeiliger Elementsatz

1 58214U 23170J 26034.01190625 .00000034 00000-0 17609-4 0 9996
2 58214 43.0055 24.2978 0001314 270.8247 89.2444 15.02540771125067
Epoch: 3. Feb. 2026 • Age: 29 hours

Aktueller Status

Höhe 559.0 km
Geschwindigkeit 7.58 km/s
Subsatellitenpunkt -2.04°S, 166.38°E
Startdatum 4. Nov. 2023
Alter 2.2 years
Typ internet

Technische Details

Klassifizierung Payload
Masse 730.00 kg
Trockenmasse 700.00 kg
Gesamtmasse 730.00 kg
Länge 0.30 m
Durchmesser 4.10 m
Spannweite 29.00 m
Form Box + pan
Hersteller SPXS
Bus-Typ Starlink V2M
Phasenstatus In Orbit
Besitzer/Staat SPXS/US

Große Konstellationen

Loading constellations...